STARLINK-11481, 62230

Orbit data source: Space-Track

STARLINK-11481, 62230 is a payload satellite owned by SpaceX/Seattle (US) in LEO that was launched on Thu, 05 Dec 2024 UTC via an FALCON 9 launch vehicle from the Air Force Western Test Range (AFWTR). Payload-class satellites include a variety of spacecraft equipped with specific instruments for various scientific and technological missions. These include communications satellites like Starlink; space stations such as the ISS; scientific satellites like the Hubble; Earth observation satellites from companies like Planet Labs, Umbra, and HawkEye 360; GPS; miniature CubeSats for education and research; and military/defense satellites.

Not visible in the next 10 days
Identifier
62230, 2024-231N
Orbit
LEO
Country
Flag of USUS
Related business
Manufacturer
SpaceX/Seattle
Mission
Operational Commercial Communications
Bus & Motor
STARLINK V2MD, Unknown motor
Mass
960 kg wet, ~910 kg dry
Launch date (UTC)
2024-12-05 (11 months ago)
Launch vehicle
FALCON 9
Launch site
Air Force Western Test Range (AFWTR)
Object type
Payload
Rocket body
Debris
Shape & HBR
Box + 2 Pan, 18.1 m
Radar Cross Section
36.964 m², Large (>1 m²)

Expand to show TLE details & history
Last TLE update: 17 hours ago

TLE from 17 hours ago
0 STARLINK-11481
1 62230U 24231N   25305.56739810  .00155388  00000-0  12621-2 0  9993
2 62230  53.1564  13.2110 0001403  81.1705 278.9472 15.69737797 53285
Epoch: 2025-11-01T13:37Z
TLE epoch observation values (Epoch: 2025-11-01T13:37:03.195Z)
Latitude
-0.00002°
Longitude
127.85205°
Altitude
360.415 km
Speed
7.694 km/s
True Right ascension
00h 52m 50s
True Declination
0° 00' 00"
Sunlit
Object was in full shadow at epoch
Visualization orbit readout
Latitude
Unknown
Longitude
Unknown
Altitude
Unknown
Speed
Unknown
Apparent Right ascension
Unknown
Apparent Declination
Unknown
Sunlit
N/A
Visualization observer readout
Local Sidereal Time
02:22:37
Azimuth
Unknown
Elevation
Unknown
Doppler factor
Unknown
Orbital elements
Apogee altitude
360.854 km
Perigee altitude
358.963 km
Semi-major axis
6,738.045 km
Eccentricity
0.00014
Inclination
53.1564°
RAAN
13.211°
Arg. of periapsis
81.1705°
True anomaly
278.93132°
Mean anomaly
278.9472°
Eccentric anomaly
278.93926°
Mean motion
3.92412 °/min
Orbital period
91.74 mins
BSTAR
0.0012621
Loading maneuver chart data...
Computing Atmospheric mass density...
Loading historical data...
Loading historical data...
Loading historical data...
Loading historical data...
Loading historical data...
Loading historical data...
Loading historical data...

Documentation

Showing up to 5 results
|